Regional Weather Roundup
Issued by NWS

Home | Current Version | Previous Version | Graphics & Text | Print | Product List | Glossary On
Versions: 1 2 3 4 5 6 7 8 9 10 11 12 13 14 15 16 17 18 19 20 21 22 23 24 25 26 27 28 29 30 31 32 33 34 35 36 37 38 39 40 41 42 43 44 45 46 47 48 49 50
000
ASUS43 KLSX 022010
RWRMO

WEATHER SUMMARY FOR MISSOURI
NATIONAL WEATHER SERVICE SPRINGFIELD MO
300 PM CDT MON MAY 02 2016

NOTE: "FAIR" INDICATES FEW OR NO CLOUDS BELOW 12,000 FEET WITH NO
       SIGNIFICANT WEATHER AND/OR OBSTRUCTIONS TO VISIBILITY.
       CURRENT SKY AND/OR WEATHER CONDITIONS ARE NOT AVAILABLE FOR
       CHILLICOTHE AND FARMINGTON.

MOZ001>031-035>038-043-044-053-054-022100-
...NORTHERN AND WESTERN MISSOURI...

CITY           SKY/WX    TMP DP  RH WIND       PRES   REMARKS
KANSAS CTY INT CLOUDY    54  47  77 NE3       30.09F
KANSAS C DTWN  CLOUDY    55  45  68 CALM      30.09F
LEE`S SUMMIT   CLOUDY    53  45  74 CALM      30.09F
ST JOSEPH      CLOUDY    58  44  60 NE5       30.09F
CHILLICOTHE      N/A     61  43  51 NE8       30.08S
KIRKSVILLE     CLOUDY    54  45  71 NE8       30.07S

$$
MOZ066>068-077>081-088>096-101>105-022100-
...SOUTHWEST MISSOURI...

CITY           SKY/WX    TMP DP  RH WIND       PRES   REMARKS
SPRINGFIELD    CLOUDY    53  44  71 NW7       30.08S
JOPLIN         PTSUNNY   55  45  68 W7        30.11S
BRANSON        CLOUDY    55  46  71 NW6       30.08S

$$
MOZ032>034-039>042-045>050-055>058-069>072-022100-
...CENTRAL MISSOURI...

CITY           SKY/WX    TMP DP  RH WIND       PRES   REMARKS
COLUMBIA       CLOUDY    51  48  89 N3        30.08R FOG
JEFFERSON CITY CLOUDY    54  47  77 N3        30.08R
ROLLA          CLOUDY    54  45  71 W6        30.05S
SEDALIA        CLOUDY    54  46  74 NW5       30.09S
WHITEMAN AFB   CLOUDY    52  49  89 NW3       30.08S
WARRENSBURG    RAIN      52  46  82 W5        30.09F
OSAGE BEACH    CLOUDY    54  39  58 CALM      30.08S

$$
MOZ051-052-059>065-022100-
...EAST CENTRAL MISSOURI...

CITY           SKY/WX    TMP DP  RH WIND       PRES   REMARKS
ST LOUIS INTL  CLOUDY    56  47  71 N6        30.05F
SPIRIT OF STL  CLOUDY    56  49  77 NW6       30.05S
ST CHARLES     CLOUDY    55  49  80 E3        30.05S

$$
MOZ072>076-082>087-097>100-106>115-022100-
...SOUTH CENTRAL AND SOUTHEAST MISSOURI...

CITY           SKY/WX    TMP DP  RH WIND       PRES   REMARKS
CAPE GIRARDEAU CLOUDY    64  50  60 NW9       30.00F
FARMINGTON     PTSUNNY   58  48  69 N10G20    30.03F
POPLAR BLUFF   CLOUDY    67  51  56 VRB5      30.00F
WEST PLAINS    CLOUDY    59  44  57 NW9       30.05F

$$




USA.gov is the U.S. government's official web portal to all federal, state and local government web resources and services.